Regional Weather Roundup
Issued by NWS Kansas City/Pleasant Hill, MO

Home | Current Version | Previous Version | Text Only | Print | Product List | Glossary On
Versions: 1 2 3 4 5 6 7 8 9 10 11 12 13 14 15 16 17 18 19 20 21 22 23 24 25 26 27 28 29 30 31 32 33 34 35 36 37 38 39 40 41 42 43 44 45 46 47 48 49 50
000
ASUS43 KEAX 030410
RWREAX

WEATHER ROUNDUP FOR EASTERN KANSAS AND NORTHWEST MISSOURI
NATIONAL WEATHER SERVICE KANSAS CITY/PLEASANT HILL MO
1000 PM CST FRI DEC 02 2016

KSZ040-057-103>105-MOZ028-029-037-043-030500-
...KANSAS CITY METROPOLITAN AREA...

CITY           SKY/WX    TMP DP  RH WIND       PRES   REMARKS
K.C. INTL      NOT AVBL
K.C. DOWNTOWN  PTCLDY    32  27  81 CALM      30.34R
LEES SUMMIT    NOT AVBL
OLATHE - IXD   NOT AVBL
OLATHE - OJC   NOT AVBL
LAWRENCE       PTCLDY    30  25  81 CALM      30.34R

$$

MOZ001>008-011>017-020>025-030>033-038>040-044>046-053-054-030500-
...NORTHERN AND CENTRAL MISSOURI...

CITY           SKY/WX    TMP DP  RH WIND       PRES   REMARKS
ST. JOSEPH     NOT AVBL
MOSBY            N/A     28  27  93 CALM      30.34R
WARRENSBURG    PTCLDY    32  27  80 CALM      30.33R
WHITEMAN AFB   PTCLDY    34  26  72 CALM      30.32R
CLINTON        CLOUDY    36  27  69 CALM      30.34R
SEDALIA        NOT AVBL
WARSAW         NOT AVBL
CHILLICOTHE      N/A     27  25  92 CALM      30.34S
KIRKSVILLE     CLEAR     28  24  85 NE3       30.33S

$$

MOZ041-047>049-056>058-063>065-088>090-097-030500-
...EASTERN AND SOUTHERN MISSOURI...

CITY           SKY/WX    TMP DP  RH WIND       PRES   REMARKS
ST. LOUIS INTL CLOUDY    36  28  73 CALM      30.34S
SPIRIT OF STL  CLEAR     29  28  96 CALM      30.34S
COLUMBIA       CLOUDY    37  27  67 E5        30.33R WCI  33
OSAGE BEACH    MOCLDY    37  25  61 CALM      30.35
SPRINGFIELD    CLOUDY    45  25  45 E9        30.29R
BRANSON          N/A     46  32  57 E6        30.27F
WEST PLAINS    MOCLDY    41  27  57 NE3       30.31R

$$

IAZ060-094-KSZ022-034>040-054-083-096-NEZ052-066-093-030500-
...KANSAS...SOUTHEAST NEBRASKA AND IOWA...

CITY           SKY/WX    TMP DP  RH WIND       PRES   REMARKS
TOPEKA         NOT AVBL
MANHATTAN      PTCLDY    28  24  85 N5        30.33R WCI  23
CHANUTE        CLOUDY    44  27  51 E9        30.30R
OMAHA          MOCLDY    31  25  78 CALM      30.34S
LINCOLN        CLEAR     27  24  89 N6        30.34F WCI  20
FALLS CITY       N/A    N/A N/A N/A MISG      30.33R
DES MOINES     CLOUDY    37  32  82 NE3       30.34S

$$




USA.gov is the U.S. government's official web portal to all federal, state and local government web resources and services.